EHI
0 0 0 0 0 0 0 0 0 0 0 0 0 0 0 0 0 0 0 0 0 0 0 0 0 0 0 0 0 0 0 0 0 0 0 0 0 0
0 0 0 0 0 0 0 0 0 0 0 0 0 0 0 0 0 0 0 0 0 0 0 0 0 0 0 0 0 0 0 0 0 0 0 0 0 0
0 0 0 0 0 0 0 0 0 0 0 0 0 0 0 0 0 0 0 0 0 0 0 0 0 0 0 0 0 0 0 0 0 0 0 0 0 0
0 0 0 0 0 0 0 0 0 0 0 0 0 0 0 0 0 0 0 0 0 0 0 0 0 0 0 0 0 0 0 0 0 0 0 0 0 0
0 0 0 0 0 0 0 0 0 0 0 0 0 0 0 0 0 0 0 0 0 0 0 0 0 0 0 0 0 0 0 0 0 0 0 0 0 0
0 0 0 0 0 0 0 0 0 0 0 0 0 0 0 0 0 0 0 0 0 0 0 0 0 0 0 0 0 0 0 0 0 0 0 0 0 0
0 0 0 0 0 0 0 0 0 0 0 0 0 0 0 0 0 0 0 0 0 0 0 0 0 0 0 0 0 0 0 0 0 0 0 0 0 0
0 0 0 0 0 0 0 0 0 0 0 0 0 0 0 0 0 0 0 0 0 0 0 0 0 0 0 0 0 0 0 0 0 0 0 0 0 0
0 0 0 0 0 0 0 0 0 0 0 0 0 0 0 0 0 0 0 0 0 0 0 0 0 0 0 0 0 0 0 0 0 0 0 0 0 0
0 0 0 0 0 0 0 0 0 0 0 0 0 0 0 0 0 0 0 0 0 0 0 0 0 0 0 0 0 0 0 0 0 0 0 0 0 0
0 0 0 0 0 0 0 0 0 0 0 0 0 0 0 0 0 0 0 0 0 0 0 0 0 0 0 0 0 0 0 0 0 0 0 0 0 0
0 0 0 0 0 0 0 0 0 0 0 0 0 0 0 0 0 0 0 0 0 0 0 0 0 0 0 0 0 0 0 0 0 0 0 0 0 0
0 0 0 0 0 0 0 0 0 0 0 0 0 0 0 0 0 0 0 0 0 0 0 0 0 0 0 0 0 0 0 0 0 0 0 0 0 0
0 0 0 0 0 0 0 0 0 0 0 0 0 0 0 0 0 0 0 0 0 0 0 0 0 0 0 0 0 0 0 0 0 0 0 0 0 0
0 0 0 0 0 0 0 0 0 0 0 0 0 0 0 0 0 0 0 0 0 0 0 0 0 0 0 0 0 0 0 0 0 0 0 0 0 0
0 0 0 0 0 0 0 0 0 0 0 0 0 0 0 0 0 0 0 0 0 0 0 0 0 0 0 0 0 0 0 0 0 0 0 0 0 0
0 0 0 0 0 0 0 0 0 0 0 0 0 0 0 0 0 0 0 0 0 0 0 0 0 0 0 0 0 0 0 0 0 0 0 0 0 0
0 0 0 0 0 0 0 0 0 0 0 0 0 0 0 0 0 0 0 0 0 0 0 0 0 0 0 0 0 0 0 0 0 0 0 0 0 0
0 0 0 0 0 0 0 0 0 0 0 0 0 0 0 0 0 0 0 0 0 0 0 0 0 0 0 0 0 0 0 0 0 0 0 0 0 0
0 0 0 0 0 0 0 0 0 0 0 0 0 0 0 0 0 0 0 0 0 0 0 0 0 0 0 0 0 0 0 0 0 0 0 0 0 0
0 0 0 0 0 0 0 0 0 0 0 0 0 0 0 0 0 0 0 0 0 0 0 0 0 0 0 0 0 0 0 0 0 0 0 0 0 0
0 0 0 0 0 0 0 0 0 0 0 0 0 0 0 0 0 0 0 0 0 0 0 0 0 0 0 0 0 0 0 0 0 0 0 0 0 0
0 0 0 0 0 0 0 0 0 0 0 0 0 0 0 0 0 0 0 0 0 0 0 0 0 0 0 0 0 0 0 0 0 0 0 0 0 0
Wind_Speed
5 6 5 4 4 4 4 4 4 5 6 3 2 3 3 3 6 5 5 8 10 10 10 10 9 9 8 7 7 7 7 7 7 7 7 6 7 6
5 6 6 5 4 4 4 4 5 5 7 4 4 4 4 5 7 5 5 9 9 10 9 9 8 8 8 8 7 7 7 7 7 7 7 6 5 5
6 7 7 7 5 5 5 5 5 5 7 6 4 4 5 5 5 5 5 5 5 9 9 9 8 8 8 8 8 7 7 7 7 7 7 6 6 5
7 7 8 7 7 6 5 6 6 6 6 8 5 4 5 5 5 5 5 5 4 8 10 10 9 8 8 8 7 7 7 6 7 7 6 6 7 7
8 8 8 8 8 7 7 7 6 6 5 6 6 4 4 4 4 5 5 4 5 6 9 9 9 8 8 8 7 7 7 7 6 6 6 7 7 7
9 9 8 8 9 8 7 8 7 6 6 5 5 5 4 3 4 4 4 4 4 4 6 7 7 8 9 8 8 7 7 7 7 7 7 7 7 7
8 8 9 11 12 11 8 7 7 6 6 6 6 5 4 4 4 4 5 4 4 3 3 4 4 4 5 7 7 7 8 8 8 8 8 8 7 7
9 8 9 10 12 14 15 14 12 9 8 7 7 7 7 6 4 4 4 4 5 3 3 4 3 4 4 4 7 8 8 8 9 9 9 9 8 8
8 8 8 8 11 9 12 14 14 15 15 10 9 9 8 7 6 7 6 6 6 3 3 5 3 5 5 5 9 9 9 9 9 9 9 9 8 8
8 9 9 9 9 11 10 10 10 10 11 10 9 9 9 8 8 9 8 6 5 4 4 5 4 5 4 4 9 10 10 9 9 9 9 9 8 8
9 9 9 9 13 15 10 9 10 8 10 13 14 13 13 13 10 5 5 5 6 4 3 4 4 3 3 4 6 10 10 9 10 9 9 8 8 7
7 8 12 12 14 14 9 8 9 7 6 6 8 8 7 8 10 8 6 6 5 4 4 3 3 2 3 3 3 3 5 7 8 8 8 8 8 5
7 6 6 13 14 14 12 8 9 8 5 5 5 5 5 5 5 6 6 6 6 5 4 3 3 3 3 3 2 2 3 3 4 5 7 9 9 7
7 6 7 13 14 15 10 9 11 9 4 4 4 4 4 4 4 5 5 6 6 6 5 5 4 4 3 3 3 2 2 2 2 3 3 6 7 8
7 11 13 14 13 9 10 11 8 4 3 4 4 4 3 4 3 3 3 3 3 4 4 5 4 4 4 4 4 3 2 2 2 2 2 3 3 3
7 9 12 12 9 8 7 5 4 3 4 4 4 3 3 3 3 3 3 3 2 3 3 3 4 5 4 4 4 4 3 3 2 2 2 2 2 2
6 4 4 4 3 3 3 3 3 3 3 3 3 3 3 4 3 3 3 3 3 3 2 1 1 2 3 4 4 4 3 2 3 2 2 2 2 3
7 4 4 4 4 4 4 4 4 3 3 3 3 3 3 4 4 3 3 3 4 4 3 2 2 1 1 2 3 4 3 2 2 2 2 2 3 2
4 3 4 4 4 4 4 4 4 4 3 3 3 3 3 4 4 3 3 3 3 4 3 3 3 3 3 3 2 2 3 3 2 2 2 2 3 3
3 4 4 4 4 4 4 4 4 4 4 3 3 3 4 4 4 4 4 4 4 3 3 3 3 4 4 3 2 1 3 3 3 3 2 1 1 2
4 4 4 5 4 4 4 4 4 4 4 4 4 4 4 4 4 4 4 5 4 3 4 3 3 2 1 2 1 1 1 2 3 3 3 2 1 1
5 5 5 5 5 4 4 4 4 4 4 4 4 4 4 4 4 4 3 3 2 2 2 2 2 2 2 3 3 2 1 1 1 0 1 3 3 4
5 5 5 5 5 4 4 5 5 5 5 5 4 4 4 4 3 3 2 2 2 2 2 2 1 1 2 3 3 2 2 1 1 1 1 1 2 2
Wind_Direction
263 264 265 259 255 257 251 250 253 267 271 266 261 254 265 269 281 280 277 283 287 288 289 288 280 272 267 267 264 263 262 254 249 243 241 237 234 230
264 262 266 263 255 254 249 250 253 254 263 256 260 274 271 278 281 278 272 281 280 282 282 282 276 268 261 260 260 261 260 253 246 243 238 235 232 231
273 265 264 264 257 252 249 244 250 252 261 271 268 270 260 260 273 272 272 267 269 273 275 276 277 272 263 255 251 248 246 245 240 236 235 239 235 232
276 270 267 266 258 254 247 244 246 247 254 267 269 263 262 253 253 258 271 272 267 272 270 269 267 265 259 250 243 240 238 238 239 236 237 241 243 239
269 266 266 268 265 260 253 248 249 252 252 257 264 266 268 262 261 267 265 265 270 272 269 264 259 260 257 249 243 240 237 231 230 233 235 238 242 240
269 266 263 257 262 262 260 250 249 251 252 252 258 261 261 257 246 256 267 260 266 274 267 263 258 259 254 246 240 238 235 234 233 232 230 230 234 239
269 266 266 264 266 265 262 253 248 245 247 249 254 259 252 243 242 249 259 269 265 257 258 261 256 253 248 239 236 233 235 235 235 231 231 230 231 235
273 272 272 268 268 273 272 267 260 250 246 245 248 246 246 243 244 245 253 261 265 236 240 265 245 246 247 228 231 234 234 234 234 233 233 233 233 233
270 271 273 273 276 273 272 271 265 259 254 249 247 246 243 235 233 241 242 248 255 242 243 264 255 252 245 238 235 233 232 233 233 232 232 232 233 232
268 265 266 269 264 271 265 262 259 254 251 247 243 244 243 241 231 235 240 251 267 247 226 252 254 255 256 238 235 230 230 229 231 233 232 229 229 231
273 270 270 268 272 276 270 266 267 264 262 259 257 256 255 254 250 243 234 234 255 249 220 231 247 262 264 250 235 227 226 227 228 229 227 223 224 228
281 276 277 278 280 280 268 263 266 267 265 267 267 265 260 253 250 237 227 229 245 248 214 209 232 239 265 257 233 220 218 222 224 226 227 228 226 223
289 287 284 290 291 287 282 268 267 275 265 259 259 260 252 244 237 235 230 225 231 242 211 197 221 227 236 261 268 237 218 216 218 223 224 225 226 222
286 287 289 296 297 294 288 283 284 284 266 256 253 251 250 245 241 238 241 239 243 245 225 213 222 216 219 246 252 238 224 222 216 217 212 219 227 230
290 294 298 301 300 295 293 296 294 278 263 260 258 257 251 247 245 241 250 249 258 256 232 231 226 221 222 231 234 232 240 236 208 203 210 213 221 216
301 302 306 308 306 304 303 299 290 275 270 261 265 264 264 257 248 242 245 243 253 268 255 239 226 217 229 232 225 228 217 203 195 203 213 231 232 219
304 302 305 307 306 306 304 300 293 289 286 275 268 267 269 267 263 255 245 237 239 245 250 244 220 224 241 234 226 217 209 218 207 191 195 228 235 219
313 304 305 303 302 301 299 300 298 292 289 290 284 274 272 269 266 260 240 231 234 236 233 225 200 217 253 285 239 210 204 210 204 195 199 209 245 238
314 305 302 301 300 299 295 293 296 296 293 288 284 281 276 272 264 259 244 233 235 233 230 217 207 202 213 239 275 225 196 191 183 201 218 217 234 241
314 303 298 298 299 298 296 295 296 298 295 290 285 283 279 274 267 258 244 235 233 230 225 219 212 209 210 208 206 258 217 190 183 196 220 240 257 263
310 304 300 298 298 297 296 292 289 289 292 292 287 283 279 276 269 260 251 246 242 227 217 225 224 202 136 112 142 234 255 209 201 197 185 188 228 230
306 303 301 298 297 296 296 295 291 290 291 288 285 283 280 275 270 267 259 244 232 215 214 219 172 175 170 171 187 202 214 118 128 129 216 213 195 203
304 302 301 301 298 296 294 291 289 287 287 285 285 284 282 282 278 268 262 247 215 199 187 187 185 171 169 165 170 182 180 160 133 116 341 317 278 252